Time,TemperatureF,DewpointF,PressureIn,WindDirection,WindDirectionDegrees,WindSpeedMPH,WindSpeedGustMPH,Humidity,HourlyPrecipIn,Conditions,Clouds,dailyrainin,SolarRadiationWatts/m^2,SoftwareType,DateUTC
2013-05-28 00:01:00,63.9,57.5,30.17,NE,51,1.0,4.0,80,0.00,,,0.00,0,HR-IXPWINDi_r2_v1.2.,2013-05-28 04:01:00,
2013-05-28 00:06:00,63.6,57.6,30.17,NNE,33,0.0,4.0,81,0.00,,,0.00,0,HR-IXPWINDi_r2_v1.2.,2013-05-28 04:06:00,
2013-05-28 00:11:00,63.5,57.5,30.17,NNE,33,0.0,3.0,81,0.00,,,0.00,0,HR-IXPWINDi_r2_v1.2.,2013-05-28 04:11:00,
2013-05-28 00:16:00,63.5,57.5,30.17,NNE,33,0.0,3.0,81,0.00,,,0.00,0,HR-IXPWINDi_r2_v1.2.,2013-05-28 04:16:00,
2013-05-28 00:21:00,63.4,57.7,30.18,North,351,2.0,4.0,82,0.00,,,0.00,0,HR-IXPWINDi_r2_v1.2.,2013-05-28 04:21:00,
2013-05-28 00:26:00,63.3,57.3,30.17,East,84,0.0,4.0,81,0.00,,,0.00,0,HR-IXPWINDi_r2_v1.2.,2013-05-28 04:26:00,
2013-05-28 00:32:00,62.5,56.9,30.17,East,84,1.0,3.0,82,0.00,,,0.00,0,HR-IXPWINDi_r2_v1.2.,2013-05-28 04:32:00,
2013-05-28 00:37:00,62.5,57.2,30.17,ESE,116,2.0,5.0,83,0.00,,,0.00,0,HR-IXPWINDi_r2_v1.2.,2013-05-28 04:37:00,
2013-05-28 00:42:00,62.4,57.1,30.18,North,5,0.0,5.0,83,0.00,,,0.00,0,HR-IXPWINDi_r2_v1.2.,2013-05-28 04:42:00,
2013-05-28 00:47:00,62.0,57.0,30.17,NNE,27,0.0,4.0,84,0.00,,,0.00,0,HR-IXPWINDi_r2_v1.2.,2013-05-28 04:47:00,
2013-05-28 00:52:00,62.0,57.0,30.18,NE,34,0.0,1.0,84,0.00,,,0.00,0,HR-IXPWINDi_r2_v1.2.,2013-05-28 04:52:00,
2013-05-28 00:57:00,61.2,56.6,30.18,NE,34,0.0,1.0,85,0.00,,,0.00,0,HR-IXPWINDi_r2_v1.2.,2013-05-28 04:57:00,
2013-05-28 01:03:00,60.9,56.6,30.18,NE,34,0.0,1.0,86,0.00,,,0.00,0,HR-IXPWINDi_r2_v1.2.,2013-05-28 05:03:00,
2013-05-28 01:08:00,61.2,56.9,30.17,NE,40,0.0,2.0,86,0.00,,,0.00,0,HR-IXPWINDi_r2_v1.2.,2013-05-28 05:08:00,
2013-05-28 01:13:00,61.0,56.7,30.17,NE,39,0.0,5.0,86,0.00,,,0.00,0,HR-IXPWINDi_r2_v1.2.,2013-05-28 05:13:00,
2013-05-28 01:18:00,60.7,56.4,30.17,East,90,0.0,5.0,86,0.00,,,0.00,0,HR-IXPWINDi_r2_v1.2.,2013-05-28 05:18:00,
2013-05-28 01:23:00,60.7,56.4,30.17,East,90,2.0,4.0,86,0.00,,,0.00,0,HR-IXPWINDi_r2_v1.2.,2013-05-28 05:23:00,
2013-05-28 01:29:00,60.3,56.3,30.17,ESE,103,0.0,5.0,87,0.00,,,0.00,0,HR-IXPWINDi_r2_v1.2.,2013-05-28 05:29:00,
2013-05-28 01:34:00,60.1,56.5,30.17,ESE,103,0.0,5.0,88,0.00,,,0.00,0,HR-IXPWINDi_r2_v1.2.,2013-05-28 05:34:00,
2013-05-28 01:39:00,60.0,56.1,30.17,ESE,103,2.0,4.0,87,0.00,,,0.00,0,HR-IXPWINDi_r2_v1.2.,2013-05-28 05:39:00,
2013-05-28 01:44:00,59.9,56.3,30.17,East,101,2.0,5.0,88,0.00,,,0.00,0,HR-IXPWINDi_r2_v1.2.,2013-05-28 05:44:00,
2013-05-28 01:49:00,60.2,56.6,30.16,ESE,119,4.0,5.0,88,0.00,,,0.00,0,HR-IXPWINDi_r2_v1.2.,2013-05-28 05:49:00,
2013-05-28 01:55:00,60.4,56.8,30.16,ESE,119,0.0,5.0,88,0.00,,,0.00,0,HR-IXPWINDi_r2_v1.2.,2013-05-28 05:55:00,
2013-05-28 02:00:00,60.0,56.4,30.16,ESE,119,1.0,4.0,88,0.00,,,0.00,0,HR-IXPWINDi_r2_v1.2.,2013-05-28 06:00:00,
2013-05-28 02:05:00,59.7,56.1,30.16,ESE,119,0.0,4.0,88,0.00,,,0.00,0,HR-IXPWINDi_r2_v1.2.,2013-05-28 06:05:00,
2013-05-28 02:10:00,59.8,56.2,30.16,East,87,0.0,4.0,88,0.00,,,0.00,0,HR-IXPWINDi_r2_v1.2.,2013-05-28 06:10:00,
2013-05-28 02:15:00,59.0,55.7,30.15,ESE,105,2.0,5.0,89,0.00,,,0.00,0,HR-IXPWINDi_r2_v1.2.,2013-05-28 06:15:00,
2013-05-28 02:21:00,59.0,55.7,30.15,ESE,104,0.0,5.0,89,0.00,,,0.00,0,HR-IXPWINDi_r2_v1.2.,2013-05-28 06:21:00,
2013-05-28 02:26:00,59.0,56.0,30.15,ESE,104,0.0,4.0,90,0.00,,,0.00,0,HR-IXPWINDi_r2_v1.2.,2013-05-28 06:26:00,
2013-05-28 02:31:00,58.9,55.9,30.15,ESE,104,0.0,4.0,90,0.00,,,0.00,0,HR-IXPWINDi_r2_v1.2.,2013-05-28 06:31:00,
2013-05-28 02:36:00,59.0,56.0,30.15,ESE,104,0.0,2.0,90,0.00,,,0.00,0,HR-IXPWINDi_r2_v1.2.,2013-05-28 06:36:00,
2013-05-28 02:41:00,58.8,55.8,30.15,ESE,104,1.0,4.0,90,0.00,,,0.00,0,HR-IXPWINDi_r2_v1.2.,2013-05-28 06:41:00,
2013-05-28 02:46:00,58.8,55.8,30.15,ESE,109,0.0,4.0,90,0.00,,,0.00,0,HR-IXPWINDi_r2_v1.2.,2013-05-28 06:46:00,
2013-05-28 02:53:00,58.8,55.8,30.15,ESE,109,0.0,5.0,90,0.00,,,0.00,0,HR-IXPWINDi_r2_v1.2.,2013-05-28 06:53:00,
2013-05-28 02:58:00,58.3,55.3,30.14,ESE,109,0.0,5.0,90,0.00,,,0.00,0,HR-IXPWINDi_r2_v1.2.,2013-05-28 06:58:00,
2013-05-28 03:03:00,57.9,55.2,30.14,ESE,117,0.0,5.0,91,0.00,,,0.00,0,HR-IXPWINDi_r2_v1.2.,2013-05-28 07:03:00,
2013-05-28 03:08:00,57.8,55.1,30.14,ESE,117,0.0,5.0,91,0.00,,,0.00,0,HR-IXPWINDi_r2_v1.2.,2013-05-28 07:08:00,
2013-05-28 03:13:00,57.8,55.4,30.14,ESE,117,0.0,2.0,92,0.00,,,0.00,0,HR-IXPWINDi_r2_v1.2.,2013-05-28 07:13:00,
2013-05-28 03:18:00,57.7,55.3,30.14,ENE,71,0.0,2.0,92,0.00,,,0.00,0,HR-IXPWINDi_r2_v1.2.,2013-05-28 07:18:00,
2013-05-28 03:24:00,57.7,55.3,30.15,ENE,71,0.0,2.0,92,0.00,,,0.00,0,HR-IXPWINDi_r2_v1.2.,2013-05-28 07:24:00,
2013-05-28 03:29:00,57.8,55.4,30.14,ESE,120,0.0,4.0,92,0.00,,,0.00,0,HR-IXPWINDi_r2_v1.2.,2013-05-28 07:29:00,
2013-05-28 03:34:00,57.6,55.2,30.14,ESE,121,1.0,4.0,92,0.00,,,0.00,0,HR-IXPWINDi_r2_v1.2.,2013-05-28 07:34:00,
2013-05-28 03:39:00,57.5,55.1,30.14,ESE,120,0.0,2.0,92,0.00,,,0.00,0,HR-IXPWINDi_r2_v1.2.,2013-05-28 07:39:00,
2013-05-28 03:44:00,57.5,55.1,30.14,ESE,120,0.0,1.0,92,0.00,,,0.00,0,HR-IXPWINDi_r2_v1.2.,2013-05-28 07:44:00,
2013-05-28 03:49:00,57.3,54.9,30.14,ESE,120,2.0,4.0,92,0.00,,,0.00,0,HR-IXPWINDi_r2_v1.2.,2013-05-28 07:49:00,
2013-05-28 03:55:00,57.3,54.9,30.14,ESE,117,0.0,4.0,92,0.00,,,0.00,0,HR-IXPWINDi_r2_v1.2.,2013-05-28 07:55:00,
2013-05-28 04:00:00,57.2,55.1,30.14,ESE,117,0.0,4.0,93,0.00,,,0.00,0,HR-IXPWINDi_r2_v1.2.,2013-05-28 08:00:00,
2013-05-28 04:05:00,57.2,55.1,30.13,ESE,117,0.0,4.0,93,0.00,,,0.00,0,HR-IXPWINDi_r2_v1.2.,2013-05-28 08:05:00,
2013-05-28 04:10:00,57.0,54.9,30.13,ESE,119,1.0,5.0,93,0.00,,,0.00,0,HR-IXPWINDi_r2_v1.2.,2013-05-28 08:10:00,
2013-05-28 04:15:00,56.9,54.8,30.13,ENE,73,0.0,5.0,93,0.00,,,0.00,0,HR-IXPWINDi_r2_v1.2.,2013-05-28 08:15:00,
2013-05-28 04:21:00,57.1,55.0,30.14,ESE,121,0.0,4.0,93,0.00,,,0.00,0,HR-IXPWINDi_r2_v1.2.,2013-05-28 08:21:00,
2013-05-28 04:26:00,57.1,55.0,30.13,ESE,121,0.0,5.0,93,0.00,,,0.00,0,HR-IXPWINDi_r2_v1.2.,2013-05-28 08:26:00,
2013-05-28 04:31:00,57.3,55.2,30.13,NNW,338,3.0,5.0,93,0.00,,,0.00,0,HR-IXPWINDi_r2_v1.2.,2013-05-28 08:31:00,
2013-05-28 04:36:00,57.6,55.5,30.13,SE,130,0.0,4.0,93,0.00,,,0.00,0,HR-IXPWINDi_r2_v1.2.,2013-05-28 08:36:00,
2013-05-28 04:41:00,58.0,55.9,30.13,NNW,348,3.0,5.0,93,0.00,,,0.00,0,HR-IXPWINDi_r2_v1.2.,2013-05-28 08:41:00,
2013-05-28 04:46:00,58.6,56.5,30.13,NNW,348,0.0,5.0,93,0.00,,,0.00,0,HR-IXPWINDi_r2_v1.2.,2013-05-28 08:46:00,
2013-05-28 04:52:00,59.5,57.4,30.13,ESE,119,0.0,4.0,93,0.00,,,0.00,0,HR-IXPWINDi_r2_v1.2.,2013-05-28 08:52:00,
2013-05-28 04:57:00,61.7,58.4,30.12,SE,134,5.0,9.0,89,0.00,,,0.00,0,HR-IXPWINDi_r2_v1.2.,2013-05-28 08:57:00,
2013-05-28 05:02:00,64.0,58.7,30.13,ESE,119,5.0,9.0,83,0.00,,,0.00,0,HR-IXPWINDi_r2_v1.2.,2013-05-28 09:02:00,
2013-05-28 05:07:00,65.2,58.5,30.13,SE,135,5.0,8.0,79,0.00,,,0.00,0,HR-IXPWINDi_r2_v1.2.,2013-05-28 09:07:00,
2013-05-28 05:13:00,65.8,58.7,30.14,SSE,153,0.0,6.0,78,0.00,,,0.00,0,HR-IXPWINDi_r2_v1.2.,2013-05-28 09:13:00,
2013-05-28 05:18:00,66.1,58.6,30.14,SSE,148,6.0,7.0,77,0.00,,,0.00,0,HR-IXPWINDi_r2_v1.2.,2013-05-28 09:18:00,
2013-05-28 05:23:00,66.1,58.6,30.14,SE,129,0.0,8.0,77,0.00,,,0.00,0,HR-IXPWINDi_r2_v1.2.,2013-05-28 09:23:00,
2013-05-28 05:28:00,66.1,58.3,30.14,SSE,167,0.0,8.0,76,0.00,,,0.00,0,HR-IXPWINDi_r2_v1.2.,2013-05-28 09:28:00,
2013-05-28 05:33:00,66.2,58.3,30.14,SE,136,6.0,8.0,76,0.00,,,0.00,0,HR-IXPWINDi_r2_v1.2.,2013-05-28 09:33:00,
2013-05-28 05:39:00,66.4,58.5,30.14,South,171,0.0,8.0,76,0.00,,,0.00,0,HR-IXPWINDi_r2_v1.2.,2013-05-28 09:39:00,
2013-05-28 05:44:00,66.6,58.7,30.15,SSE,155,0.0,7.0,76,0.00,,,0.00,0,HR-IXPWINDi_r2_v1.2.,2013-05-28 09:44:00,
2013-05-28 05:49:00,65.6,58.5,30.15,SSE,155,0.0,4.0,78,0.00,,,0.00,0,HR-IXPWINDi_r2_v1.2.,2013-05-28 09:49:00,
2013-05-28 05:54:00,64.8,58.1,30.15,North,360,2.0,5.0,79,0.00,,,0.00,0,HR-IXPWINDi_r2_v1.2.,2013-05-28 09:54:00,
2013-05-28 05:59:00,64.0,58.0,30.16,North,360,0.0,5.0,81,0.00,,,0.00,0,HR-IXPWINDi_r2_v1.2.,2013-05-28 09:59:00,
2013-05-28 06:04:00,63.3,58.0,30.16,North,360,2.0,4.0,83,0.00,,,0.00,0,HR-IXPWINDi_r2_v1.2.,2013-05-28 10:04:00,
2013-05-28 06:10:00,63.2,57.9,30.16,North,9,0.0,5.0,83,0.00,,,0.00,0,HR-IXPWINDi_r2_v1.2.,2013-05-28 10:10:00,
2013-05-28 06:15:00,63.4,58.1,30.16,North,10,2.0,5.0,83,0.00,,,0.00,0,HR-IXPWINDi_r2_v1.2.,2013-05-28 10:15:00,
2013-05-28 06:20:00,63.6,58.3,30.16,North,5,3.0,5.0,83,0.00,,,0.00,0,HR-IXPWINDi_r2_v1.2.,2013-05-28 10:20:00,
2013-05-28 06:25:00,63.9,58.2,30.16,North,5,2.0,5.0,82,0.00,,,0.00,0,HR-IXPWINDi_r2_v1.2.,2013-05-28 10:25:00,
2013-05-28 06:30:00,64.2,58.2,30.16,North,5,3.0,4.0,81,0.00,,,0.00,5,HR-IXPWINDi_r2_v1.2.,2013-05-28 10:30:00,
2013-05-28 06:36:00,64.2,58.2,30.16,NNE,32,1.0,5.0,81,0.00,,,0.00,7,HR-IXPWINDi_r2_v1.2.,2013-05-28 10:36:00,
2013-05-28 06:41:00,64.2,58.2,30.16,NE,38,0.0,5.0,81,0.00,,,0.00,9,HR-IXPWINDi_r2_v1.2.,2013-05-28 10:41:00,
2013-05-28 06:46:00,64.0,58.3,30.16,North,5,2.0,5.0,82,0.00,,,0.00,9,HR-IXPWINDi_r2_v1.2.,2013-05-28 10:46:00,
2013-05-28 06:51:00,63.8,58.5,30.16,North,5,2.0,4.0,83,0.00,,,0.00,9,HR-IXPWINDi_r2_v1.2.,2013-05-28 10:51:00,
2013-05-28 06:56:00,63.9,58.2,30.17,NNW,348,3.0,5.0,82,0.00,,,0.00,11,HR-IXPWINDi_r2_v1.2.,2013-05-28 10:56:00,
2013-05-28 07:01:00,63.9,58.6,30.17,North,355,2.0,5.0,83,0.00,,,0.00,14,HR-IXPWINDi_r2_v1.2.,2013-05-28 11:01:00,
2013-05-28 07:06:00,64.3,58.6,30.17,North,355,1.0,5.0,82,0.00,,,0.00,18,HR-IXPWINDi_r2_v1.2.,2013-05-28 11:06:00,
2013-05-28 07:11:00,64.6,58.6,30.17,NNE,24,2.0,4.0,81,0.00,,,0.00,23,HR-IXPWINDi_r2_v1.2.,2013-05-28 11:11:00,
2013-05-28 07:17:00,65.0,58.6,30.16,NNW,339,3.0,5.0,80,0.00,,,0.00,28,HR-IXPWINDi_r2_v1.2.,2013-05-28 11:17:00,
2013-05-28 07:22:00,64.9,58.9,30.17,NNW,342,0.0,5.0,81,0.00,,,0.00,39,HR-IXPWINDi_r2_v1.2.,2013-05-28 11:22:00,
2013-05-28 07:27:00,64.7,58.7,30.17,North,5,0.0,4.0,81,0.00,,,0.00,49,HR-IXPWINDi_r2_v1.2.,2013-05-28 11:27:00,
2013-05-28 07:32:00,64.3,59.0,30.17,NNE,15,0.0,3.0,83,0.00,,,0.00,54,HR-IXPWINDi_r2_v1.2.,2013-05-28 11:32:00,
2013-05-28 07:37:00,63.5,58.8,30.17,NE,42,0.0,1.0,85,0.00,,,0.00,62,HR-IXPWINDi_r2_v1.2.,2013-05-28 11:37:00,
2013-05-28 07:42:00,63.6,59.3,30.17,NE,42,0.0,1.0,86,0.00,,,0.00,63,HR-IXPWINDi_r2_v1.2.,2013-05-28 11:42:00,
2013-05-28 07:48:00,64.2,59.9,30.18,NE,42,0.0,1.0,86,0.00,,,0.00,65,HR-IXPWINDi_r2_v1.2.,2013-05-28 11:48:00,
2013-05-28 07:53:00,64.2,59.9,30.18,NE,42,0.0,1.0,86,0.00,,,0.00,81,HR-IXPWINDi_r2_v1.2.,2013-05-28 11:53:00,
2013-05-28 07:58:00,64.1,60.1,30.18,NE,42,0.0,1.0,87,0.00,,,0.00,74,HR-IXPWINDi_r2_v1.2.,2013-05-28 11:58:00,
2013-05-28 08:03:00,64.1,60.1,30.18,NE,42,0.0,1.0,87,0.00,,,0.00,77,HR-IXPWINDi_r2_v1.2.,2013-05-28 12:03:00,
2013-05-28 08:08:00,64.4,60.1,30.18,NE,42,0.0,1.0,86,0.00,,,0.00,84,HR-IXPWINDi_r2_v1.2.,2013-05-28 12:08:00,
2013-05-28 08:13:00,64.6,60.3,30.18,NE,42,0.0,1.0,86,0.00,,,0.00,91,HR-IXPWINDi_r2_v1.2.,2013-05-28 12:13:00,
2013-05-28 08:18:00,64.5,60.5,30.18,NE,42,0.0,1.0,87,0.00,,,0.00,102,HR-IXPWINDi_r2_v1.2.,2013-05-28 12:18:00,
2013-05-28 08:24:00,64.7,60.7,30.18,NE,42,0.0,2.0,87,0.00,,,0.00,109,HR-IXPWINDi_r2_v1.2.,2013-05-28 12:24:00,
2013-05-28 08:29:00,65.0,61.0,30.18,NE,42,0.0,2.0,87,0.00,,,0.00,118,HR-IXPWINDi_r2_v1.2.,2013-05-28 12:29:00,
2013-05-28 08:34:00,65.3,60.9,30.18,ENE,62,0.0,3.0,86,0.00,,,0.00,146,HR-IXPWINDi_r2_v1.2.,2013-05-28 12:34:00,
2013-05-28 08:39:00,66.0,61.0,30.17,ENE,62,0.0,3.0,84,0.00,,,0.00,165,HR-IXPWINDi_r2_v1.2.,2013-05-28 12:39:00,
2013-05-28 08:44:00,66.4,60.7,30.17,NNE,22,0.0,3.0,82,0.00,,,0.00,218,HR-IXPWINDi_r2_v1.2.,2013-05-28 12:44:00,
2013-05-28 08:50:00,67.2,61.5,30.17,East,90,4.0,4.0,82,0.00,,,0.00,227,HR-IXPWINDi_r2_v1.2.,2013-05-28 12:50:00,
2013-05-28 08:55:00,68.3,60.7,30.17,ESE,108,0.0,4.0,77,0.00,,,0.00,276,HR-IXPWINDi_r2_v1.2.,2013-05-28 12:55:00,
2013-05-28 09:00:00,68.7,60.8,30.17,ENE,73,1.0,4.0,76,0.00,,,0.00,244,HR-IXPWINDi_r2_v1.2.,2013-05-28 13:00:00,
2013-05-28 09:05:00,69.1,61.2,30.18,ENE,69,0.0,3.0,76,0.00,,,0.00,234,HR-IXPWINDi_r2_v1.2.,2013-05-28 13:05:00,
2013-05-28 09:11:00,69.3,61.0,30.18,North,350,0.0,3.0,75,0.00,,,0.00,174,HR-IXPWINDi_r2_v1.2.,2013-05-28 13:11:00,
2013-05-28 09:16:00,69.4,61.1,30.18,North,349,0.0,3.0,75,0.00,,,0.00,165,HR-IXPWINDi_r2_v1.2.,2013-05-28 13:16:00,
2013-05-28 09:21:00,69.5,61.5,30.18,North,349,0.0,3.0,76,0.00,,,0.00,163,HR-IXPWINDi_r2_v1.2.,2013-05-28 13:21:00,
2013-05-28 09:26:00,69.5,62.3,30.18,ESE,117,0.0,2.0,78,0.00,,,0.00,178,HR-IXPWINDi_r2_v1.2.,2013-05-28 13:26:00,
2013-05-28 09:31:00,69.7,62.5,30.18,ESE,117,0.0,4.0,78,0.00,,,0.00,548,HR-IXPWINDi_r2_v1.2.,2013-05-28 13:31:00,
2013-05-28 09:37:00,70.4,62.4,30.17,ESE,119,2.0,5.0,76,0.00,,,0.00,613,HR-IXPWINDi_r2_v1.2.,2013-05-28 13:37:00,
2013-05-28 09:42:00,71.5,61.9,30.18,ESE,117,0.0,5.0,72,0.00,,,0.00,622,HR-IXPWINDi_r2_v1.2.,2013-05-28 13:42:00,
2013-05-28 09:47:00,72.2,61.8,30.18,ESE,117,0.0,4.0,70,0.00,,,0.00,652,HR-IXPWINDi_r2_v1.2.,2013-05-28 13:47:00,
2013-05-28 09:52:00,73.0,60.9,30.18,NNE,30,0.0,4.0,66,0.00,,,0.00,677,HR-IXPWINDi_r2_v1.2.,2013-05-28 13:52:00,
2013-05-28 09:57:00,73.7,60.3,30.18,North,9,1.0,4.0,63,0.00,,,0.00,700,HR-IXPWINDi_r2_v1.2.,2013-05-28 13:57:00,
2013-05-28 10:02:00,73.9,59.6,30.18,North,5,1.0,4.0,61,0.00,,,0.00,733,HR-IXPWINDi_r2_v1.2.,2013-05-28 14:02:00,
2013-05-28 10:08:00,75.6,59.7,30.18,North,5,0.0,4.0,58,0.00,,,0.00,759,HR-IXPWINDi_r2_v1.2.,2013-05-28 14:08:00,
2013-05-28 10:13:00,74.7,59.8,30.18,South,179,2.0,8.0,60,0.00,,,0.00,793,HR-IXPWINDi_r2_v1.2.,2013-05-28 14:13:00,
2013-05-28 10:18:00,75.3,60.4,30.18,SE,140,1.0,8.0,60,0.00,,,0.00,779,HR-IXPWINDi_r2_v1.2.,2013-05-28 14:18:00,
2013-05-28 10:23:00,76.1,60.7,30.18,North,349,4.0,4.0,59,0.00,,,0.00,803,HR-IXPWINDi_r2_v1.2.,2013-05-28 14:23:00,
2013-05-28 10:28:00,76.0,61.1,30.17,NNW,348,2.0,6.0,60,0.00,,,0.00,476,HR-IXPWINDi_r2_v1.2.,2013-05-28 14:28:00,
2013-05-28 10:34:00,75.6,60.7,30.18,NNE,20,3.0,6.0,60,0.00,,,0.00,671,HR-IXPWINDi_r2_v1.2.,2013-05-28 14:34:00,
2013-05-28 10:39:00,75.8,59.9,30.17,North,355,1.0,5.0,58,0.00,,,0.00,599,HR-IXPWINDi_r2_v1.2.,2013-05-28 14:39:00,
2013-05-28 10:44:00,74.8,59.9,30.17,South,190,0.0,7.0,60,0.00,,,0.00,443,HR-IXPWINDi_r2_v1.2.,2013-05-28 14:44:00,
2013-05-28 10:49:00,77.1,61.6,30.17,North,360,3.0,7.0,59,0.00,,,0.00,853,HR-IXPWINDi_r2_v1.2.,2013-05-28 14:49:00,
2013-05-28 10:54:00,76.1,59.7,30.17,SE,126,4.0,11.0,57,0.00,,,0.00,483,HR-IXPWINDi_r2_v1.2.,2013-05-28 14:54:00,
2013-05-28 11:00:00,75.3,60.4,30.17,South,179,6.0,11.0,60,0.00,,,0.00,464,HR-IXPWINDi_r2_v1.2.,2013-05-28 15:00:00,
2013-05-28 11:05:00,75.0,59.6,30.17,North,5,2.0,8.0,59,0.00,,,0.00,410,HR-IXPWINDi_r2_v1.2.,2013-05-28 15:05:00,
2013-05-28 11:10:00,76.5,60.6,30.17,North,5,1.0,7.0,58,0.00,,,0.00,462,HR-IXPWINDi_r2_v1.2.,2013-05-28 15:10:00,
2013-05-28 11:15:00,75.7,60.8,30.17,South,171,4.0,7.0,60,0.00,,,0.00,545,HR-IXPWINDi_r2_v1.2.,2013-05-28 15:15:00,
2013-05-28 11:20:00,75.6,59.7,30.17,South,173,1.0,8.0,58,0.00,,,0.00,793,HR-IXPWINDi_r2_v1.2.,2013-05-28 15:20:00,
2013-05-28 11:26:00,76.0,59.1,30.17,SSW,205,0.0,8.0,56,0.00,,,0.00,758,HR-IXPWINDi_r2_v1.2.,2013-05-28 15:26:00,
2013-05-28 11:31:00,75.8,59.9,30.17,SSW,194,5.0,9.0,58,0.00,,,0.00,823,HR-IXPWINDi_r2_v1.2.,2013-05-28 15:31:00,
2013-05-28 11:36:00,75.6,58.7,30.18,SE,141,4.0,10.0,56,0.00,,,0.00,427,HR-IXPWINDi_r2_v1.2.,2013-05-28 15:36:00,
2013-05-28 11:41:00,75.7,58.8,30.18,SSE,164,6.0,10.0,56,0.00,,,0.00,691,HR-IXPWINDi_r2_v1.2.,2013-05-28 15:41:00,
2013-05-28 11:46:00,76.1,59.7,30.17,ESE,121,0.0,8.0,57,0.00,,,0.00,696,HR-IXPWINDi_r2_v1.2.,2013-05-28 15:46:00,
2013-05-28 11:52:00,76.1,58.7,30.18,SSW,209,2.0,8.0,55,0.00,,,0.00,647,HR-IXPWINDi_r2_v1.2.,2013-05-28 15:52:00,
2013-05-28 11:57:00,75.7,59.8,30.17,South,169,0.0,8.0,58,0.00,,,0.00,610,HR-IXPWINDi_r2_v1.2.,2013-05-28 15:57:00,
2013-05-28 12:02:00,76.3,59.9,30.17,SSW,198,4.0,8.0,57,0.00,,,0.00,679,HR-IXPWINDi_r2_v1.2.,2013-05-28 16:02:00,
2013-05-28 12:07:00,78.0,61.0,30.17,NNW,335,2.0,8.0,56,0.00,,,0.00,921,HR-IXPWINDi_r2_v1.2.,2013-05-28 16:07:00,
2013-05-28 12:12:00,78.9,60.3,30.17,NE,34,1.0,4.0,53,0.00,,,0.00,970,HR-IXPWINDi_r2_v1.2.,2013-05-28 16:12:00,
2013-05-28 12:18:00,78.7,58.5,30.17,North,5,0.0,6.0,50,0.00,,,0.00,905,HR-IXPWINDi_r2_v1.2.,2013-05-28 16:18:00,
2013-05-28 12:23:00,77.0,58.0,30.17,SSW,203,5.0,7.0,52,0.00,,,0.00,942,HR-IXPWINDi_r2_v1.2.,2013-05-28 16:23:00,
2013-05-28 12:28:00,77.6,58.5,30.16,NNE,17,2.0,7.0,52,0.00,,,0.00,919,HR-IXPWINDi_r2_v1.2.,2013-05-28 16:28:00,
2013-05-28 12:33:00,79.1,61.0,30.16,SSW,201,6.0,7.0,54,0.00,,,0.00,923,HR-IXPWINDi_r2_v1.2.,2013-05-28 16:33:00,
2013-05-28 12:39:00,79.1,62.0,30.16,NNW,336,3.0,7.0,56,0.00,,,0.00,914,HR-IXPWINDi_r2_v1.2.,2013-05-28 16:39:00,
2013-05-28 12:44:00,79.3,59.0,30.16,North,360,0.0,7.0,50,0.00,,,0.00,932,HR-IXPWINDi_r2_v1.2.,2013-05-28 16:44:00,
2013-05-28 12:49:00,79.1,59.9,30.16,SSW,210,1.0,7.0,52,0.00,,,0.00,940,HR-IXPWINDi_r2_v1.2.,2013-05-28 16:49:00,
2013-05-28 12:54:00,78.8,58.5,30.15,South,170,5.0,12.0,50,0.00,,,0.00,956,HR-IXPWINDi_r2_v1.2.,2013-05-28 16:54:00,
2013-05-28 12:59:00,79.0,60.4,30.15,WSW,248,2.0,13.0,53,0.00,,,0.00,969,HR-IXPWINDi_r2_v1.2.,2013-05-28 16:59:00,
2013-05-28 13:04:00,79.5,59.2,30.15,SE,146,1.0,13.0,50,0.00,,,0.00,990,HR-IXPWINDi_r2_v1.2.,2013-05-28 17:04:00,
2013-05-28 13:10:00,79.6,59.3,30.15,SE,140,10.0,11.0,50,0.00,,,0.00,1004,HR-IXPWINDi_r2_v1.2.,2013-05-28 17:10:00,
2013-05-28 13:15:00,80.9,59.9,30.15,SSW,193,4.0,10.0,49,0.00,,,0.00,963,HR-IXPWINDi_r2_v1.2.,2013-05-28 17:15:00,
2013-05-28 13:20:00,79.6,59.3,30.15,South,173,6.0,11.0,50,0.00,,,0.00,962,HR-IXPWINDi_r2_v1.2.,2013-05-28 17:20:00,
2013-05-28 13:25:00,79.2,59.5,30.14,SE,128,8.0,11.0,51,0.00,,,0.00,970,HR-IXPWINDi_r2_v1.2.,2013-05-28 17:25:00,
2013-05-28 13:31:00,79.4,59.7,30.14,ESE,119,7.0,11.0,51,0.00,,,0.00,1014,HR-IXPWINDi_r2_v1.2.,2013-05-28 17:31:00,
2013-05-28 13:36:00,78.8,60.7,30.14,SE,144,6.0,9.0,54,0.00,,,0.00,206,HR-IXPWINDi_r2_v1.2.,2013-05-28 17:36:00,
2013-05-28 13:41:00,77.8,59.3,30.14,South,180,5.0,14.0,53,0.00,,,0.00,267,HR-IXPWINDi_r2_v1.2.,2013-05-28 17:41:00,
2013-05-28 13:46:00,78.9,60.8,30.14,SSE,163,5.0,14.0,54,0.00,,,0.00,267,HR-IXPWINDi_r2_v1.2.,2013-05-28 17:46:00,
2013-05-28 13:51:00,80.1,60.3,30.14,SE,137,7.0,13.0,51,0.00,,,0.00,1023,HR-IXPWINDi_r2_v1.2.,2013-05-28 17:51:00,
2013-05-28 13:57:00,79.2,59.5,30.14,SSE,152,0.0,13.0,51,0.00,,,0.00,1039,HR-IXPWINDi_r2_v1.2.,2013-05-28 17:57:00,
2013-05-28 14:02:00,80.0,60.2,30.14,ESE,117,4.0,12.0,51,0.00,,,0.00,214,HR-IXPWINDi_r2_v1.2.,2013-05-28 18:02:00,
2013-05-28 14:07:00,79.5,58.0,30.13,ENE,57,3.0,13.0,48,0.00,,,0.00,243,HR-IXPWINDi_r2_v1.2.,2013-05-28 18:07:00,
2013-05-28 14:13:00,79.0,58.7,30.14,ESE,119,5.0,13.0,50,0.00,,,0.00,244,HR-IXPWINDi_r2_v1.2.,2013-05-28 18:13:00,
2013-05-28 14:18:00,78.6,57.8,30.13,SSW,207,5.0,12.0,49,0.00,,,0.00,1032,HR-IXPWINDi_r2_v1.2.,2013-05-28 18:18:00,
2013-05-28 14:23:00,78.6,57.8,30.13,SW,225,0.0,12.0,49,0.00,,,0.00,570,HR-IXPWINDi_r2_v1.2.,2013-05-28 18:23:00,
2013-05-28 14:28:00,79.8,60.6,30.13,ESE,120,11.0,13.0,52,0.00,,,0.00,937,HR-IXPWINDi_r2_v1.2.,2013-05-28 18:28:00,
2013-05-28 14:33:00,79.5,58.0,30.13,SE,142,7.0,13.0,48,0.00,,,0.00,911,HR-IXPWINDi_r2_v1.2.,2013-05-28 18:33:00,
2013-05-28 14:38:00,80.8,54.9,30.13,SSW,208,12.0,18.0,41,0.00,,,0.00,905,HR-IXPWINDi_r2_v1.2.,2013-05-28 18:38:00,
2013-05-28 14:44:00,79.8,56.5,30.12,South,190,12.0,18.0,45,0.00,,,0.00,895,HR-IXPWINDi_r2_v1.2.,2013-05-28 18:44:00,
2013-05-28 14:49:00,80.9,56.9,30.12,SE,145,2.0,16.0,44,0.00,,,0.00,904,HR-IXPWINDi_r2_v1.2.,2013-05-28 18:49:00,
2013-05-28 14:54:00,80.9,56.3,30.11,South,171,5.0,17.0,43,0.00,,,0.00,923,HR-IXPWINDi_r2_v1.2.,2013-05-28 18:54:00,
2013-05-28 14:59:00,80.5,59.0,30.11,ESE,117,8.0,17.0,48,0.00,,,0.00,886,HR-IXPWINDi_r2_v1.2.,2013-05-28 18:59:00,
2013-05-28 15:04:00,81.0,60.0,30.11,SW,235,2.0,19.0,49,0.00,,,0.00,953,HR-IXPWINDi_r2_v1.2.,2013-05-28 19:04:00,
2013-05-28 15:10:00,80.4,59.4,30.11,SE,127,13.0,19.0,49,0.00,,,0.00,928,HR-IXPWINDi_r2_v1.2.,2013-05-28 19:10:00,
2013-05-28 15:15:00,80.3,60.5,30.11,SE,131,2.0,18.0,51,0.00,,,0.00,916,HR-IXPWINDi_r2_v1.2.,2013-05-28 19:15:00,
2013-05-28 15:20:00,80.5,60.1,30.11,SSE,156,5.0,17.0,50,0.00,,,0.00,886,HR-IXPWINDi_r2_v1.2.,2013-05-28 19:20:00,
2013-05-28 15:25:00,80.8,60.9,30.11,SE,125,7.0,13.0,51,0.00,,,0.00,810,HR-IXPWINDi_r2_v1.2.,2013-05-28 19:25:00,
2013-05-28 15:31:00,80.3,59.4,30.10,NNW,340,1.0,13.0,49,0.00,,,0.00,824,HR-IXPWINDi_r2_v1.2.,2013-05-28 19:31:00,
2013-05-28 15:36:00,80.0,61.8,30.10,SSE,148,9.0,13.0,54,0.00,,,0.00,830,HR-IXPWINDi_r2_v1.2.,2013-05-28 19:36:00,
2013-05-28 15:41:00,80.1,60.3,30.10,SE,143,5.0,13.0,51,0.00,,,0.00,865,HR-IXPWINDi_r2_v1.2.,2013-05-28 19:41:00,
2013-05-28 15:46:00,80.3,59.4,30.11,SE,144,6.0,12.0,49,0.00,,,0.00,599,HR-IXPWINDi_r2_v1.2.,2013-05-28 19:46:00,
2013-05-28 15:51:00,80.1,60.8,30.11,SE,126,11.0,14.0,52,0.00,,,0.00,599,HR-IXPWINDi_r2_v1.2.,2013-05-28 19:51:00,
2013-05-28 15:57:00,79.9,62.2,30.11,South,188,7.0,14.0,55,0.00,,,0.00,814,HR-IXPWINDi_r2_v1.2.,2013-05-28 19:57:00,
2013-05-28 16:02:00,81.1,60.1,30.11,West,263,0.0,14.0,49,0.00,,,0.00,798,HR-IXPWINDi_r2_v1.2.,2013-05-28 20:02:00,
2013-05-28 16:07:00,79.8,59.5,30.11,SSW,194,10.0,19.0,50,0.00,,,0.00,765,HR-IXPWINDi_r2_v1.2.,2013-05-28 20:07:00,
2013-05-28 16:12:00,79.3,59.6,30.11,SW,215,1.0,19.0,51,0.00,,,0.00,710,HR-IXPWINDi_r2_v1.2.,2013-05-28 20:12:00,
2013-05-28 16:17:00,79.8,60.0,30.11,South,174,8.0,14.0,51,0.00,,,0.00,677,HR-IXPWINDi_r2_v1.2.,2013-05-28 20:17:00,
2013-05-28 16:22:00,79.2,59.5,30.11,SE,138,9.0,15.0,51,0.00,,,0.00,171,HR-IXPWINDi_r2_v1.2.,2013-05-28 20:22:00,
2013-05-28 16:27:00,79.4,60.2,30.11,ESE,113,13.0,18.0,52,0.00,,,0.00,708,HR-IXPWINDi_r2_v1.2.,2013-05-28 20:27:00,
2013-05-28 16:32:00,79.3,60.1,30.11,SE,125,2.0,18.0,52,0.00,,,0.00,701,HR-IXPWINDi_r2_v1.2.,2013-05-28 20:32:00,
2013-05-28 16:38:00,79.5,60.3,30.11,SE,126,11.0,17.0,52,0.00,,,0.00,698,HR-IXPWINDi_r2_v1.2.,2013-05-28 20:38:00,
2013-05-28 16:43:00,78.9,59.7,30.11,South,184,9.0,17.0,52,0.00,,,0.00,656,HR-IXPWINDi_r2_v1.2.,2013-05-28 20:43:00,
2013-05-28 16:48:00,78.8,59.6,30.11,SE,130,5.0,17.0,52,0.00,,,0.00,592,HR-IXPWINDi_r2_v1.2.,2013-05-28 20:48:00,
2013-05-28 16:53:00,79.0,59.8,30.11,NE,53,4.0,17.0,52,0.00,,,0.00,664,HR-IXPWINDi_r2_v1.2.,2013-05-28 20:53:00,
2013-05-28 16:58:00,79.2,60.5,30.11,SSW,202,7.0,15.0,53,0.00,,,0.00,592,HR-IXPWINDi_r2_v1.2.,2013-05-28 20:58:00,
2013-05-28 17:04:00,79.7,60.5,30.11,SSE,147,6.0,15.0,52,0.00,,,0.00,594,HR-IXPWINDi_r2_v1.2.,2013-05-28 21:04:00,
2013-05-28 17:09:00,79.1,59.9,30.11,SE,134,7.0,16.0,52,0.00,,,0.00,167,HR-IXPWINDi_r2_v1.2.,2013-05-28 21:09:00,
2013-05-28 17:14:00,78.7,60.1,30.11,SE,146,10.0,16.0,53,0.00,,,0.00,160,HR-IXPWINDi_r2_v1.2.,2013-05-28 21:14:00,
2013-05-28 17:19:00,78.4,59.8,30.11,West,269,1.0,17.0,53,0.00,,,0.00,638,HR-IXPWINDi_r2_v1.2.,2013-05-28 21:19:00,
2013-05-28 17:24:00,79.5,60.8,30.11,ESE,103,11.0,17.0,53,0.00,,,0.00,570,HR-IXPWINDi_r2_v1.2.,2013-05-28 21:24:00,
2013-05-28 17:30:00,79.3,61.2,30.10,ESE,120,6.0,19.0,54,0.00,,,0.00,251,HR-IXPWINDi_r2_v1.2.,2013-05-28 21:30:00,
2013-05-28 17:35:00,79.3,60.6,30.10,South,190,10.0,19.0,53,0.00,,,0.00,199,HR-IXPWINDi_r2_v1.2.,2013-05-28 21:35:00,
2013-05-28 17:40:00,78.3,60.2,30.10,SE,134,5.0,14.0,54,0.00,,,0.00,118,HR-IXPWINDi_r2_v1.2.,2013-05-28 21:40:00,
2013-05-28 17:45:00,77.8,61.3,30.10,ESE,117,6.0,14.0,57,0.00,,,0.00,111,HR-IXPWINDi_r2_v1.2.,2013-05-28 21:45:00,
2013-05-28 17:50:00,77.2,60.2,30.10,ESE,112,13.0,19.0,56,0.00,,,0.00,107,HR-IXPWINDi_r2_v1.2.,2013-05-28 21:50:00,
2013-05-28 17:55:00,77.2,60.2,30.10,South,170,5.0,19.0,56,0.00,,,0.00,90,HR-IXPWINDi_r2_v1.2.,2013-05-28 21:55:00,
2013-05-28 18:00:00,77.1,60.1,30.09,SSE,163,4.0,16.0,56,0.00,,,0.00,95,HR-IXPWINDi_r2_v1.2.,2013-05-28 22:00:00,
2013-05-28 18:05:00,76.9,60.5,30.10,SSW,202,2.0,11.0,57,0.00,,,0.00,137,HR-IXPWINDi_r2_v1.2.,2013-05-28 22:05:00,
2013-05-28 18:11:00,76.9,60.5,30.10,South,185,6.0,11.0,57,0.00,,,0.00,132,HR-IXPWINDi_r2_v1.2.,2013-05-28 22:11:00,
2013-05-28 18:16:00,76.8,59.9,30.10,ESE,112,7.0,13.0,56,0.00,,,0.00,146,HR-IXPWINDi_r2_v1.2.,2013-05-28 22:16:00,
2013-05-28 18:21:00,76.6,59.7,30.09,SE,142,7.0,14.0,56,0.00,,,0.00,132,HR-IXPWINDi_r2_v1.2.,2013-05-28 22:21:00,
2013-05-28 18:26:00,76.6,60.7,30.09,South,171,1.0,14.0,58,0.00,,,0.00,127,HR-IXPWINDi_r2_v1.2.,2013-05-28 22:26:00,
2013-05-28 18:31:00,76.7,60.3,30.10,SE,126,6.0,13.0,57,0.00,,,0.00,105,HR-IXPWINDi_r2_v1.2.,2013-05-28 22:31:00,
2013-05-28 18:36:00,76.5,60.1,30.10,SSW,199,7.0,14.0,57,0.00,,,0.00,90,HR-IXPWINDi_r2_v1.2.,2013-05-28 22:36:00,
2013-05-28 18:42:00,76.2,59.8,30.10,ESE,117,8.0,14.0,57,0.00,,,0.00,84,HR-IXPWINDi_r2_v1.2.,2013-05-28 22:42:00,
2013-05-28 18:47:00,76.0,59.6,30.10,SSE,161,2.0,17.0,57,0.00,,,0.00,84,HR-IXPWINDi_r2_v1.2.,2013-05-28 22:47:00,
2013-05-28 18:52:00,76.0,59.6,30.10,South,174,4.0,17.0,57,0.00,,,0.00,77,HR-IXPWINDi_r2_v1.2.,2013-05-28 22:52:00,
2013-05-28 18:57:00,75.9,59.5,30.10,South,179,5.0,15.0,57,0.00,,,0.00,60,HR-IXPWINDi_r2_v1.2.,2013-05-28 22:57:00,
2013-05-28 19:02:00,75.9,60.0,30.10,SSE,158,1.0,15.0,58,0.00,,,0.00,47,HR-IXPWINDi_r2_v1.2.,2013-05-28 23:02:00,
2013-05-28 19:08:00,75.7,59.8,30.10,SE,135,6.0,14.0,58,0.00,,,0.00,40,HR-IXPWINDi_r2_v1.2.,2013-05-28 23:08:00,
2013-05-28 19:13:00,75.6,59.7,30.10,SSE,157,2.0,15.0,58,0.00,,,0.00,40,HR-IXPWINDi_r2_v1.2.,2013-05-28 23:13:00,
2013-05-28 19:18:00,75.4,59.5,30.10,SE,146,6.0,15.0,58,0.00,,,0.00,39,HR-IXPWINDi_r2_v1.2.,2013-05-28 23:18:00,
2013-05-28 19:23:00,75.3,59.9,30.10,SSE,161,7.0,9.0,59,0.00,,,0.00,40,HR-IXPWINDi_r2_v1.2.,2013-05-28 23:23:00,
2013-05-28 19:28:00,75.1,59.7,30.10,SE,132,6.0,12.0,59,0.00,,,0.00,28,HR-IXPWINDi_r2_v1.2.,2013-05-28 23:28:00,
2013-05-28 19:33:00,75.0,59.6,30.10,South,170,5.0,12.0,59,0.00,,,0.00,26,HR-IXPWINDi_r2_v1.2.,2013-05-28 23:33:00,
2013-05-28 19:38:00,74.9,59.6,30.10,SE,131,4.0,11.0,59,0.00,,,0.00,25,HR-IXPWINDi_r2_v1.2.,2013-05-28 23:38:00,
2013-05-28 19:44:00,74.8,59.5,30.10,SE,133,6.0,8.0,59,0.00,,,0.00,23,HR-IXPWINDi_r2_v1.2.,2013-05-28 23:44:00,
2013-05-28 19:49:00,74.6,59.7,30.10,SE,145,6.0,12.0,60,0.00,,,0.00,21,HR-IXPWINDi_r2_v1.2.,2013-05-28 23:49:00,
2013-05-28 19:54:00,74.4,59.1,30.11,SE,140,7.0,15.0,59,0.00,,,0.00,19,HR-IXPWINDi_r2_v1.2.,2013-05-28 23:54:00,
2013-05-28 20:00:00,74.3,59.0,30.11,SSE,155,4.0,15.0,59,0.00,,,0.00,18,HR-IXPWINDi_r2_v1.2.,2013-05-29 00:00:00,
2013-05-28 20:05:00,74.0,59.2,30.11,SSE,163,11.0,13.0,60,0.00,,,0.00,16,HR-IXPWINDi_r2_v1.2.,2013-05-29 00:05:00,
2013-05-28 20:10:00,74.0,58.7,30.11,SE,144,4.0,11.0,59,0.00,,,0.00,14,HR-IXPWINDi_r2_v1.2.,2013-05-29 00:10:00,
2013-05-28 20:15:00,73.9,59.1,30.12,ESE,117,5.0,11.0,60,0.00,,,0.00,11,HR-IXPWINDi_r2_v1.2.,2013-05-29 00:15:00,
2013-05-28 20:20:00,73.8,59.0,30.12,South,180,1.0,11.0,60,0.00,,,0.00,7,HR-IXPWINDi_r2_v1.2.,2013-05-29 00:20:00,
2013-05-28 20:25:00,73.5,58.7,30.12,SE,142,4.0,11.0,60,0.00,,,0.00,5,HR-IXPWINDi_r2_v1.2.,2013-05-29 00:25:00,
2013-05-28 20:30:00,73.3,59.0,30.12,SE,140,4.0,8.0,61,0.00,,,0.00,5,HR-IXPWINDi_r2_v1.2.,2013-05-29 00:30:00,
2013-05-28 20:36:00,73.1,58.8,30.12,ESE,117,2.0,8.0,61,0.00,,,0.00,0,HR-IXPWINDi_r2_v1.2.,2013-05-29 00:36:00,
2013-05-28 20:41:00,73.0,58.7,30.12,South,190,7.0,7.0,61,0.00,,,0.00,0,HR-IXPWINDi_r2_v1.2.,2013-05-29 00:41:00,
2013-05-28 20:46:00,72.9,59.1,30.12,SE,132,4.0,10.0,62,0.00,,,0.00,0,HR-IXPWINDi_r2_v1.2.,2013-05-29 00:46:00,
2013-05-28 20:51:00,72.8,58.5,30.12,SSW,200,1.0,10.0,61,0.00,,,0.00,0,HR-IXPWINDi_r2_v1.2.,2013-05-29 00:51:00,
2013-05-28 20:56:00,72.7,58.9,30.12,SW,214,9.0,14.0,62,0.00,,,0.00,0,HR-IXPWINDi_r2_v1.2.,2013-05-29 00:56:00,
2013-05-28 21:01:00,72.4,58.6,30.13,SSE,168,8.0,14.0,62,0.00,,,0.00,0,HR-IXPWINDi_r2_v1.2.,2013-05-29 01:01:00,
2013-05-28 21:07:00,72.5,58.7,30.13,SE,135,6.0,10.0,62,0.00,,,0.00,0,HR-IXPWINDi_r2_v1.2.,2013-05-29 01:07:00,
2013-05-28 21:12:00,72.1,58.8,30.12,SE,138,0.0,9.0,63,0.00,,,0.00,0,HR-IXPWINDi_r2_v1.2.,2013-05-29 01:12:00,
2013-05-28 21:17:00,72.0,59.1,30.13,SE,137,1.0,11.0,64,0.00,,,0.00,0,HR-IXPWINDi_r2_v1.2.,2013-05-29 01:17:00,
2013-05-28 21:22:00,71.7,59.2,30.13,ESE,117,7.0,11.0,65,0.00,,,0.00,0,HR-IXPWINDi_r2_v1.2.,2013-05-29 01:22:00,
2013-05-28 21:27:00,71.6,59.2,30.13,SE,136,5.0,9.0,65,0.00,,,0.00,0,HR-IXPWINDi_r2_v1.2.,2013-05-29 01:27:00,
2013-05-28 21:32:00,71.4,59.0,30.13,ESE,121,1.0,9.0,65,0.00,,,0.00,0,HR-IXPWINDi_r2_v1.2.,2013-05-29 01:32:00,
2013-05-28 21:37:00,71.3,59.3,30.13,ESE,118,5.0,9.0,66,0.00,,,0.00,0,HR-IXPWINDi_r2_v1.2.,2013-05-29 01:37:00,
2013-05-28 21:42:00,71.2,59.2,30.13,SE,128,0.0,9.0,66,0.00,,,0.00,0,HR-IXPWINDi_r2_v1.2.,2013-05-29 01:42:00,
2013-05-28 21:48:00,70.8,59.2,30.13,SSE,154,0.0,8.0,67,0.00,,,0.00,0,HR-IXPWINDi_r2_v1.2.,2013-05-29 01:48:00,
2013-05-28 21:53:00,70.5,59.4,30.13,East,95,6.0,6.0,68,0.00,,,0.00,0,HR-IXPWINDi_r2_v1.2.,2013-05-29 01:53:00,
2013-05-28 21:58:00,70.4,59.3,30.13,SSE,153,0.0,8.0,68,0.00,,,0.00,0,HR-IXPWINDi_r2_v1.2.,2013-05-29 01:58:00,
2013-05-28 22:03:00,70.5,59.4,30.13,ESE,120,2.0,8.0,68,0.00,,,0.00,0,HR-IXPWINDi_r2_v1.2.,2013-05-29 02:03:00,
2013-05-28 22:08:00,70.3,59.6,30.14,SSE,157,0.0,7.0,69,0.00,,,0.00,0,HR-IXPWINDi_r2_v1.2.,2013-05-29 02:08:00,
2013-05-28 22:14:00,70.3,59.6,30.14,South,178,0.0,7.0,69,0.00,,,0.00,0,HR-IXPWINDi_r2_v1.2.,2013-05-29 02:14:00,
2013-05-28 22:19:00,69.6,59.7,30.14,South,178,2.0,6.0,71,0.00,,,0.00,0,HR-IXPWINDi_r2_v1.2.,2013-05-29 02:19:00,
2013-05-28 22:24:00,68.6,59.5,30.14,NNW,329,2.0,5.0,73,0.00,,,0.00,0,HR-IXPWINDi_r2_v1.2.,2013-05-29 02:24:00,
2013-05-28 22:29:00,67.8,59.5,30.15,NNW,329,0.0,5.0,75,0.00,,,0.00,0,HR-IXPWINDi_r2_v1.2.,2013-05-29 02:29:00,
2013-05-28 22:34:00,67.3,59.4,30.15,NNW,329,0.0,4.0,76,0.00,,,0.00,0,HR-IXPWINDi_r2_v1.2.,2013-05-29 02:34:00,
2013-05-28 22:39:00,67.3,59.4,30.15,NNW,329,0.0,3.0,76,0.00,,,0.00,0,HR-IXPWINDi_r2_v1.2.,2013-05-29 02:39:00,
2013-05-28 22:44:00,66.7,59.6,30.15,NNW,332,0.0,0.0,78,0.00,,,0.00,0,HR-IXPWINDi_r2_v1.2.,2013-05-29 02:44:00,
2013-05-28 22:50:00,66.1,59.3,30.15,NNW,332,0.0,0.0,79,0.00,,,0.00,0,HR-IXPWINDi_r2_v1.2.,2013-05-29 02:50:00,
2013-05-28 22:55:00,66.1,59.3,30.15,ENE,61,0.0,0.0,79,0.00,,,0.00,0,HR-IXPWINDi_r2_v1.2.,2013-05-29 02:55:00,
2013-05-28 23:00:00,66.2,59.4,30.15,NNE,12,0.0,0.0,79,0.00,,,0.00,0,HR-IXPWINDi_r2_v1.2.,2013-05-29 03:00:00,
2013-05-28 23:05:00,65.2,59.2,30.15,North,5,0.0,0.0,81,0.00,,,0.00,0,HR-IXPWINDi_r2_v1.2.,2013-05-29 03:05:00,
2013-05-28 23:10:00,64.9,59.2,30.15,North,5,0.0,0.0,82,0.00,,,0.00,0,HR-IXPWINDi_r2_v1.2.,2013-05-29 03:10:00,
2013-05-28 23:15:00,64.9,59.2,30.15,North,349,0.0,5.0,82,0.00,,,0.00,0,HR-IXPWINDi_r2_v1.2.,2013-05-29 03:15:00,
2013-05-28 23:21:00,64.6,59.3,30.15,North,349,2.0,5.0,83,0.00,,,0.00,0,HR-IXPWINDi_r2_v1.2.,2013-05-29 03:21:00,
2013-05-28 23:26:00,64.7,59.7,30.15,North,349,0.0,5.0,84,0.00,,,0.00,0,HR-IXPWINDi_r2_v1.2.,2013-05-29 03:26:00,
2013-05-28 23:31:00,64.7,59.4,30.15,North,349,2.0,3.0,83,0.00,,,0.00,0,HR-IXPWINDi_r2_v1.2.,2013-05-29 03:31:00,
2013-05-28 23:37:00,64.8,59.5,30.15,North,349,2.0,3.0,83,0.00,,,0.00,0,HR-IXPWINDi_r2_v1.2.,2013-05-29 03:37:00,
2013-05-28 23:42:00,64.8,59.8,30.15,North,355,0.0,5.0,84,0.00,,,0.00,0,HR-IXPWINDi_r2_v1.2.,2013-05-29 03:42:00,
2013-05-28 23:47:00,64.5,59.2,30.15,North,355,0.0,5.0,83,0.00,,,0.00,0,HR-IXPWINDi_r2_v1.2.,2013-05-29 03:47:00,
2013-05-28 23:52:00,64.3,59.6,30.15,North,355,0.0,2.0,85,0.00,,,0.00,0,HR-IXPWINDi_r2_v1.2.,2013-05-29 03:52:00,
2013-05-28 23:57:00,64.2,59.5,30.15,North,355,0.0,2.0,85,0.00,,,0.00,0,HR-IXPWINDi_r2_v1.2.,2013-05-29 03:57:00,